Regional Weather Roundup
Issued by NWS Pendleton, OR

Home | Current Version | Previous Version | Text Only | Print | Product List | Glossary On
Versions: 1 2 3 4 5 6 7 8 9 10 11 12 13 14 15 16 17 18 19 20 21 22 23 24 25 26 27 28 29 30 31 32 33 34 35 36 37 38 39 40 41 42 43 44 45 46 47 48 49 50
000
ASUS46 KPDT 061625
RWRPDT
PENDLETON REGIONAL WEATHER ROUNDUP
NATIONAL WEATHER SERVICE PENDLETON OREGON
800 AM PST FRI MAR 6 2015

NOTE: FAIR INDICATES FEW OR NO CLOUDS BELOW 12,000 FEET WITH NO
SIGNIFICANT WEATHER AND/OR OBSTRUCTIONS TO VISIBILITY.

# INDICATES UNOFFICIAL STATION AND DATA

WAZ520-061710-
EAST SLOPES OF WASHINGTON CASCADES

CITY            SKY/WX      TMP DP  RH  WIND    PRES   REMARKS
#BUMPING DAM    N/A         28  N/A N/A NE2     N/A
#CLE ELUM HS    N/A         33  28  82  CALM    30.30S
#CLE ELUM LAKE  N/A         40  33  76  CALM    30.36R
#CLIFFDEL 2NW   N/A         30  26  85  CALM    N/A
#GLENWOOD       N/A         29  28  96  CALM    30.43R
#MANASTASH CYN  N/A         39  31  73  CALM    30.30R
#NELSON         N/A         31  28  88  CALM    30.42S
#NELSON 3SW     N/A         36  33  89  CALM    30.60R
#NILE           N/A         35  29  78  W2      29.67S
#RONALD 2NW     N/A         38  23  54  CALM    30.19R
#SNOWDEN        N/A         38  25  59  CALM    N/A
#TROUT LAKE 1NE N/A         33  30  89  CALM    30.41R
$$

WAZ521-061710-
SIMCOE HIGHLANDS

CITY            SKY/WX      TMP DP  RH  WIND    PRES   REMARKS
#BICKLETON HS   N/A         49  19  30  W7      N/A
#CENTERVILLE 4W N/A         38  31  76  CALM    30.10R
#CENTERVILLE 1SWN/A         30  27  88  CALM    30.40R
#GOLDENDALE     N/A         31  26  81  E2      N/A
#GOLDENDALE 1NE N/A         33  22  63  CALM    N/A
#GOLDENDALE 5WNWN/A         N/A N/A N/A S10     30.36R
#GOODNOE HILLS  N/A         44  34  68  W6      N/A
#LYLE 6NE       N/A         38  32  79  N2      30.37R
$$

WAZ026-061710-
KITTITAS VALLEY

CITY            SKY/WX      TMP DP  RH  WIND    PRES   REMARKS
#ELLENSBURG CWU N/A         35  29  78  CALM    30.34S
#ELLENSBURG 3NE N/A         36  32  85  N1      30.35S
#ELLENSBURG 1E  N/A         32  27  82  CALM    N/A
#KITTITAS 4N    N/A         39  30  70  CALM    28.67R
#KITTITAS 3S    N/A         29  27  92  CALM    30.40S
#THORP 6N       N/A         37  30  75  N3      30.41R
$$

WAZ027-061710-
YAKIMA VALLEY

CITY            SKY/WX      TMP DP  RH  WIND    PRES   REMARKS
SUNNYSIDE AP    CLOUDY      35  29  78  CALM    30.40R
YAKIMA AIRPORT  CLOUDY      36  30  79  CALM    30.39R
YAKIMA-VAGABOND CLOUDY      35  30  82  S3      30.38R
#DONALD 2NE     N/A         45  24  43  CALM    29.22R
#MABTON         N/A         33  30  89  CALM    30.40R
#NACHES 2SW     N/A         43  31  62  W3      30.36R
#OUTLOOK DOT    N/A         N/A N/A N/A CALM    N/A
#SELAH 8E       N/A         38  30  73  E1      N/A
#TERRACE HTS    N/A         35  31  85  CALM    30.39R
#WAPATO 4NE     N/A         45  24  43  CALM    29.22R
#WEST VALLEY    N/A         35  30  82  CALM    30.40R
#W YAKIMA       N/A         40  32  73  CALM    30.41R
#WHITE SWAN 5E  N/A         31  29  92  CALM    30.42R
#WILEY CITY 3W  N/A         38  31  76  CALM    30.38S
$$

WAZ028-061710-
LOWER COLUMBIA BASIN...WASHINGTON

CITY            SKY/WX      TMP DP  RH  WIND    PRES   REMARKS
HANFORD         CLOUDY      36  27  69  S5      30.37R
PASCO           CLOUDY      35  29  78  NW3     30.42R
PROSSER AWOS    N/A         36  34  92  S2      30.44R
RICHLAND AWOS   CLOUDY      34  30  85  CALM    30.42R
#BASIN CITY 5SW N/A         35  29  78  E2      30.40R
#BENTON CITY    N/A         35  30  82  CALM    30.33
#CONNELL 5N     N/A         39  29  67  NE2     30.41R
#CONNELL 5NW    N/A         37  29  72  E1      30.37S
#ELTOPIA        N/A          0   0  100 CALM    30.38R
#ELTOPIA 6NW    N/A         39  30  70  NE2     29.34R
#KAHLOTUS       N/A         32  26  78  S6      30.42R
#KENNEWICK 3S   N/A         37  30  75  CALM    30.42R
#PASCO-BROADMOORN/A         36  28  72  W1      30.35R
#PATERSON       N/A         37  30  75  CALM    30.41R
#PROSSER        N/A         35  28  75  CALM    30.41R
#SAGEMOOR 2W    N/A         36  30  79  CALM    30.26R
#TOUCHET 2S     N/A         32  29  89  CALM    30.41R
#WEST PASCO     N/A         36  29  75  CALM    30.44R
$$

WAZ029-061710-
FOOTHILLS OF THE BLUES...WASHINGTON

CITY            SKY/WX      TMP DP  RH  WIND    PRES   REMARKS
WALLA WALLA AP  PTCLDY      50  29  44  CALM    30.37R
#DAYTON SCHOOL  N/A         40  20  44  CALM    30.38R
#LOWDEN 2SE     N/A         33  30  89  CALM    30.37R
#PLEASANT VIEW 1N/A         38  27  64  CALM    30.45R
#PRESCOTT       N/A         40  31  70  E1      30.40R
#SUDBURY        N/A         42  N/A N/A CALM    N/A
#WHITMAN COLLEGEN/A         47  28  47  E3      30.43R
#WAITSBURG 5S   N/A         49  30  48  NE1     30.48R
#WAITSBURG 8N   N/A         48  16  27  S3      30.24S
#WALLA WALLA 5E N/A         50  32  50  NW1     N/A
#WALLA WALLA U  N/A         40  30  67  CALM    30.40R
#WHITMAN MISSIONN/A         33  30  89  CALM    30.42R
$$

WAZ030-061710-
BLUE MOUNTAINS...WASHINGTON

CITY            SKY/WX      TMP DP  RH  WIND    PRES   REMARKS
#DIXIE 5SE      N/A         51  15  23  SW2     30.30R
#SKI BLUEWOOD   N/A         35  23  61  SW1     30.35R
$$

ORZ009-041-WAZ024-061710-
COLUMBIA RIVER GORGE

CITY            SKY/WX      TMP DP  RH  WIND    PRES   REMARKS
HOOD RIVER AP   MOCLDY      36  32  85  CALM    30.41R
THE DALLES AP   CLOUDY      38  32  79  CALM    30.42R
#ARLINGTON AIRPON/A         40  35  82  W2      30.00S
#ARLINGTON HS   N/A         38  32  79  S1      30.35R
#CELILO DOT     N/A         40  33  76  CALM    N/A
#MOSIER 1S      N/A         39  32  76  CALM    30.38R
#MURDOCK        N/A         39  36  89  CALM    30.45R
#RUFUS DOT      N/A         N/A N/A N/A CALM    N/A

$$

ORZ510-061710-
NORTH CENTRAL OREGON

CITY            SKY/WX      TMP DP  RH  WIND    PRES   REMARKS
#CHENOWITH 1W   N/A         43  31  62  N3      N/A
#COW CYN RST AREN/A         42  25  51  SW3     N/A
#DUFUR 9E       N/A         49  29  46  SW2     30.42R
#GRASS VALLEY 1SN/A         39  31  73  S7      30.44R
#KENT DOT       N/A         41  25  53  S7      N/A
#MAUPIN SCHOOL  N/A         36  30  79  CALM    30.42R
#MORO SCHOOL    N/A         43  38  82  CALM    30.37R
#SHANIKO 5WSW   N/A         42  21  43  S8      N/A
#SHANIKO 4NW    N/A         45  26  47  SW3     30.36R
#TYGH VALLEY 2NEN/A         34  29  82  CALM    30.42R
#WAPANITIA AIRPON/A         35  31  85  CALM    30.43R
#WASCO DOT      N/A         35  33  92  CALM    N/A
#WASCO 5NE      N/A         40  36  85  CALM    30.40R
$$

ORZ511-061710-
CENTRAL OREGON

CITY            SKY/WX      TMP DP  RH  WIND    PRES   REMARKS
BEND AIRPORT    PTCLDY      36  19  50  E3      30.39R
MADRAS AIRPORT  MOCLDY      36  28  72  CALM    30.41R
PRINEVILLE AP   MOCLDY      43  25  49  CALM    30.40R
REDMOND AIRPORT MOCLDY      38  25  59  SE6     30.39R
#BEND 6E        N/A         40  23  50  CALM    30.42R
#BEND 1SW       N/A         36  27  69  SW1     N/A
#BEND-AWBREY    N/A         38  27  64  S10     30.39R
#BEND-KIM LN    N/A         37  27  67  SW6     30.35R
#CROOKED RVR RANN/A         38  26  62  W6      30.41R
#CULVER         N/A         35  27  72  N1      30.35R
#CULVER 1E      N/A         38  28  67  CALM    30.39
#LAKE BILLY CHINN/A         40  16  37  CALM    30.46S
#POWELL BUTTE   N/A         44  29  55  CALM    29.98R
#PRINEVILLE 3N  N/A         34  28  78  N2      30.41R
#WARM SPRINGS   N/A         33  29  85  CALM    30.38R

$$


ORZ509-061710-
EAST SLOPES OF OREGON CASCADES

CITY            SKY/WX      TMP DP  RH  WIND    PRES   REMARKS
#BLUE BOX PASS  N/A         43  -8  11  CALM    N/A
#CAMP SHERMAN   N/A         25  21  84  CALM    30.54R
#LA PINE DOT    N/A         28  20  71  SW2     N/A
#LA PINE 4NW    N/A         24  19  81  CALM    30.53R
#LAVA BUTTE DOT N/A         32  24  72  S1      N/A
#MT BACHELOR-MIDN/A         39   5  24  S13     N/A    WCI 31
#SISTERS AIRPOR N/A         28  25  88  CALM    30.17S
#SISTERS ODOT   N/A         29  N/A N/A CALM    N/A
#SISTERS 3N     N/A         29  18  63  CALM    30.37S
#SUNRIVER       N/A         31  24  75  S3      30.37R
#TUMALO 3W      N/A         42  21  43  CALM    30.25R
#WANOGA BUTTE D N/A         41   8  25  W7      N/A

$$

ORZ044-061710-
LOWER COLUMBIA BASIN...OREGON

CITY            SKY/WX      TMP DP  RH  WIND    PRES   REMARKS
HERMISTON       CLOUDY      40  30  67  CALM    30.39R
#BOARDMAN 8SW   N/A         39  35  85  CALM    30.41R
#IONE SCHOOL    N/A         37  23  56  CALM    30.35S
#IRRIGON 4NW    N/A         33  31  92  CALM    N/A
#UMATILLA SCHOOLN/A         35  33  92  CALM    30.40F
#UMATILLA       N/A         36  30  79  CALM    30.39R
$$

ORZ507-061710-
NORTHERN FOOTHILLS OF THE BLUES

CITY            SKY/WX      TMP DP  RH  WIND    PRES   REMARKS
PENDLETON AIRPT PTCLDY      44  25  47  E3      30.37R
#ADAMS 3WNW     N/A         42  34  73  CALM    30.42R
#ATHENA         N/A         50  25  37  E2      30.41R
#CAYUSE         N/A         49  27  42  E7      30.37
#HELIX SCHOOL   N/A         37  31  79  CALM    30.42R
#HELIX 3N       N/A         49  27  42  N6      30.32R
#HELIX 6SW      N/A         43  32  65  CALM    30.35
#HOLDMAN 5SE    N/A         46  34  63  CALM    30.36
#HOLDMAN 6E     N/A         45  29  53  CALM    30.21R
#M-F FERNDALE   N/A         35  28  75  CALM    30.35R
#M-F GROVE ELEM N/A         53  21  28  CALM    30.33S
#M-FREEWATER 5SEN/A         50  27  41  NE10    30.35R
#PENDLETON DNTN N/A         33  23  66  CALM    30.37S
#PDT AQUATIC CTRN/A         35  21  56  CALM    30.37S
#PENDLETON 5NE  N/A         36  30  79  CALM    30.32R
#PDT SUNRIDGE   N/A         34  28  78  CALM    30.39S
#PENDLETON 7NW  N/A         43  31  62  E2      N/A
#PILOT ROCK     N/A         51  25  36  CALM    30.37S
#TUTUILLA       N/A         41  31  67  S1      30.40R
#UMAPINE 2E     N/A         37  31  79  NW1     30.36R
#WESTON SCHOOL  N/A         53  17  24  SW2     30.34R

$$

ORZ508-061710-
SOUTHERN FOOTHILLS OF THE BLUES

CITY            SKY/WX      TMP DP  RH  WIND    PRES   REMARKS
LEXINGTON       MOCLDY      50  28  42  SE9     30.38R
#AJAX           N/A         42  24  48  CALM    30.28R
#CONDON SCHOOL  N/A         40  27  59  CALM    30.30R
#CONDON 5W      N/A         44  25  47  S7      30.33R
#FOSSIL SCHOOL  N/A         40  29  64  CALM    30.32S
#HEPPNER EOC    N/A         45  26  47  SE7     30.34S
#HEPPNER 4NE    N/A         52  24  33  CALM    30.37S
#LEXINGTON 2SE  N/A         46  29  51  SE7     30.35S
#MIKKALO        N/A         48  31  51  CALM    30.35R
#OLEX 4N        N/A         42  31  65  CALM    30.36R
#RUGGS 5NE      N/A         49  27  42  VRB2    30.52S
#RUGGS 2SW      N/A         48  24  39  S9      30.40R

$$

ORZ502-503-061710-
BLUE MOUNTAINS

CITY            SKY/WX      TMP DP  RH  WIND    PRES   REMARKS
MEACHAM         SUNNY       28  23  81  CALM    30.39S HAZE
#BATTLE MTN DOT N/A         31  28  88  S7      N/A
#HEPPNER 15SE   N/A         40  28  62  CALM    30.30R
#LADD CYN SMT   N/A         33  20  58  E10     N/A
#LADD CREEK ODOTN/A         31  23  72  SW7     N/A
#LONG CREEK HS  N/A         36  29  75  CALM    30.37R
#N POWDER DOT   N/A         29  25  85  CALM    N/A
#PIKES PEAK     N/A         50  13  22  SW17    27.99S
#TROY SCHOOL    N/A         30  26  85  CALM    30.36S
#UKIAH          N/A         25  23  92  CALM    30.58S
#WESTON 4E      N/A         49  21  33  E7      30.34R
$$

ORZ505-061710-
JOHN DAY BASIN

CITY            SKY/WX      TMP DP  RH  WIND    PRES   REMARKS
JOHN DAY        SUNNY       38  24  57  E9      30.43R
#DAYVILLE SCHOOLN/A         32  25  75  CALM    30.40R
#MONUMENT HS    N/A         31  26  81  CALM    30.44R
#MT. VERNON 5SE N/A         41  25  53  CALM    30.37R
#SPRAY SCHOOL   N/A         35  N/A N/A CALM    N/A
#WINLOCK        N/A         42  26  53  CALM    30.46R
$$

ORZ506-061710-
OCHOCO AND JOHN DAY HIGHLANDS

CITY            SKY/WX      TMP DP  RH  WIND    PRES   REMARKS
#BUCK CREEK DOT N/A         41  41  100 SE6     N/A
#HORSE RIDGE DO N/A         29  22  75  SE2     N/A
#KEYES SMT DOT  N/A         37  24  59  CALM    N/A
#PAULINA SCHOOL N/A         32  28  85  CALM    30.36R
#PRAIRIE CITY   N/A         32  25  75  CALM    30.60F
#SENECA         N/A         26  N/A N/A CALM    N/A
#SENECA 9NW     N/A         21  19  92  CALM    30.55R
$$

ORZ049-061710-
GRANDE RONDE VALLEY

CITY            SKY/WX      TMP DP  RH  WIND    PRES   REMARKS
LA GRANDE       SUNNY       36  21  54  CALM    30.43R
#COVE           N/A         34  26  72  CALM    30.41R
#COVE SCHOOL    N/A         41  27  57  CALM    30.37S
#ELGIN 3N       N/A         32  22  66  CALM    30.38R
#ELGIN 1E       N/A         26  21  81  CALM    N/A
#IMBLER SCHOOL  N/A         34  26  72  CALM    30.36R
#ISLAND CITY 4N N/A         37  36  96  CALM    30.39S
#LADD CYN DOT   N/A         30  21  69  NW1     N/A
#LA GRANDE ELEM N/A         39  25  57  CALM    30.42
#UNION 1S       N/A         38  25  59  CALM    30.40R
$$

ORZ050-061710-
WALLOWA COUNTY

CITY            SKY/WX      TMP DP  RH  WIND    PRES   REMARKS
JOSEPH AIRPORT  SUNNY       34  23  64  CALM    30.41R
#ENTERPRISE HS  N/A         29  22  75  CALM    30.39R
#IMNAHA SCHOOL  N/A         32  25  75  S1      30.42S
#IMNAHA 10S     N/A         34  20  56  SW5     30.38R
#JOSEPH 3N      N/A         28  21  75  CALM    30.38R
#JOSEPH 3W      N/A         42  18  38  CALM    30.18R
#LOSTINE        N/A         32  24  72  CALM    30.33R
#MT HOWARD 8000 N/A         38  11  32  CALM    30.41R
#PROMISE 1S     N/A         39  25  57  CALM    30.54F
#SHEEP RDG 7000 N/A         45  14  28  CALM    30.41S
#WALLOWA SCHOOL N/A         27  22  81  CALM    31.54R



$$



USA.gov is the U.S. government's official web portal to all federal, state and local government web resources and services.